[[[{"header":{"parameterUnit":"kt","parameterCategory":2,"dx":1,"dy":1,"la1":30.253999710083008,"la2":30.299108505249023,"lo1":-89.0895004272461,"lo2":-89.04439544677734,"nx":28,"ny":28,"refTime":"2022-10-14T21:00:00:Z","depth":0,"parameterNumber":1,"parameterNumberName":"U-component_of_WINDS"},"data":[-5.285,-5.2966,-5.2919,-5.3032,-5.3008,-5.3078,-5.3088,-5.3097,-5.3092,-5.3173,-5.3211,-5.3177,-5.3156,-5.3193,-5.3234,-5.3218,-5.324,-5.3319,-5.3287,-5.2977,-5.2931,-5.2887,-5.2855,-5.3324,-5.3324,-5.3615,-5.3618,-5.362,-5.2637,-5.2615,-5.2659,-5.2669,-5.2708,-5.2605,-5.2606,-5.2645,-5.2711,-5.2705,-5.2738,-5.2806,-5.2854,-5.2803,-5.2842,-5.29,-5.2854,-5.2914,-5.2909,-5.2908,-5.2575,-5.2541,-5.2951,-5.2951,-5.2951,-5.2951,-5.2951,-5.295,-5.2237,-5.2308,-5.2284,-5.233,-5.2322,-5.233,-5.239,-5.2343,-5.2386,-5.2416,-5.235,-5.2424,-5.2409,-5.2429,-5.2425,-5.2483,-5.2408,-5.2459,-5.2472,-5.2486,-5.2511,-5.2105,-5.2487,-5.2486,-5.2485,-5.2483,-5.2482,0,-5.1929,-5.1883,-5.1919,-5.1943,-5.1973,-5.1987,-5.199,-5.2026,-5.191,-5.1952,-5.2007,-5.2031,-5.208,-5.2128,-5.2152,-5.2134,-5.2031,-5.2014,-5.205,-5.2084,-5.2115,-5.2103,-5.1565,-5.2003,-5.1999,-5.1996,-5.1993,-5.1991,-5.1524,-5.161,-5.1558,-5.1591,-5.1578,-5.1633,-5.1655,-5.1545,-5.1574,-5.1564,-5.1633,-5.1678,-5.1707,-5.1807,-5.175,-5.1787,-5.1737,-5.1911,-5.1742,-5.1773,-5.1743,-5.174,-5.175,-5.1946,-5.1952,-5.1956,-5.196,0,-5.1302,-5.1216,-5.1332,-5.127,-5.1257,-5.1355,-5.1303,-5.1369,-5.1313,-5.1397,-5.141,-5.1324,-5.138,-5.1293,-5.134,-5.1294,-5.1463,-5.1411,-5.1468,-5.1454,-5.1603,-5.1592,-5.2093,-5.2155,-5.1665,-5.167,-5.1674,0,-5.0923,-5.1039,-5.0904,-5.0976,-5.1104,-5.0986,-5.1117,-5.108,-5.1059,-5.1123,-5.0989,-5.1053,-5.093,-5.0984,-5.0914,-5.1036,-5.1043,-5.1016,-5.0996,-5.1028,-5.1033,-5.1043,-5.1022,-5.0944,-5.0942,-5.0939,-5.0937,0,-5.0584,-5.0645,-5.076,-5.076,-5.0703,-5.0762,-5.0741,-5.0714,-5.0737,-5.0751,-5.0765,-5.0792,-5.0807,-5.0832,-5.0742,-5.0632,-5.0887,-5.0716,-5.0859,-5.0862,-5.092,-5.0917,-5.1384,-5.0934,-5.0934,-5.0933,-5.0932,0,-5.0262,-5.0275,-5.0454,-5.0403,-5.0423,-5.05,-5.0515,-5.0559,-5.0541,-5.05,-5.051,-5.0408,-5.0502,-5.0341,-5.0471,-5.0352,-5.0377,-5.0357,-5.0366,-5.0369,-5.0189,-5.0467,-5.0918,-5.0963,-5.0375,-5.037,-5.0366,0,-4.9901,-5.0055,-4.9951,-5.0124,-5.0182,-5.0024,-5.0107,-5.0092,-5.0044,-5.0089,-5.0035,-5.0088,-4.9947,-4.995,-5.0027,-4.9975,-5.0129,-4.9951,-5.0025,-5.0029,-5.0036,-5.045,-5.0539,-5.0828,-5.0305,-5.0311,-5.0316,0,-4.9607,-4.9529,-4.9567,-4.9561,-4.9518,-4.9565,-4.966,-4.9682,-4.9718,-4.9714,-4.9793,-4.9862,-4.976,-4.9766,-4.9684,-4.9769,-5.0021,-4.9646,-4.9644,-4.972,-5.0264,-5.035,-5.0399,-4.9949,-4.9956,-4.9962,-5.0267,0,-4.9148,-4.921,-4.9306,-4.9293,-4.9314,-4.9414,-4.9311,-4.9348,-4.9265,-4.9209,-4.9321,-4.9283,-4.9307,-4.9336,-4.9255,-4.9474,-4.9423,-4.9312,-4.9146,-4.9417,-4.9516,-4.9556,-4.9009,-4.9003,-4.8998,-4.8995,0,0,-4.8824,-4.8909,-4.8787,-4.887,-4.888,-4.8709,-4.8826,-4.8816,-4.88,-4.8812,-4.8719,-4.8811,-4.8783,-4.893,-4.9006,-4.9015,-4.9046,-4.8952,-4.9288,-4.9322,-4.9352,-4.9459,-4.9502,-4.8986,-4.8985,-4.8983,-4.8982,0,-4.8633,-4.8602,-4.8715,-4.8698,-4.8668,-4.8599,-4.8628,-4.8567,-4.8536,-4.8641,-4.8499,-4.8554,-4.8627,-4.8618,-4.8623,-4.8933,-4.8824,-4.8948,-4.9149,-4.9245,-4.9285,-4.9319,-4.9433,-4.9475,-4.897,-4.8971,-4.8972,0,-4.8327,-4.828,-4.8322,-4.833,-4.8308,-4.837,-4.8171,-4.8244,-4.8289,-4.8097,-4.8204,-4.8169,-4.8145,-4.8295,-4.8358,-4.8274,-4.8628,-4.8496,-4.8522,-4.8527,-4.8615,-4.8663,-4.8705,-4.8149,-4.8147,-4.8144,0,0,-4.8176,-4.823,-4.8142,-4.8281,-4.8277,-4.8176,-4.8197,-4.8114,-4.8093,-4.8086,-4.8036,-4.8024,-4.8065,-4.8095,-4.8128,-4.8306,-4.8294,-4.8399,-4.8438,-4.847,-4.8492,-4.8589,-4.8636,-4.8135,-4.8135,-4.8135,0,0,-4.8104,-4.8005,-4.7923,-4.807,-4.8055,-4.7978,-4.8068,-4.7966,-4.7983,-4.796,-4.7825,-4.7816,-4.7953,-4.7923,-4.7812,-4.8068,-4.7906,-4.793,-4.8082,-4.8129,-4.8167,-4.8172,-4.7602,0,0,0,0,0,-4.7852,-4.8017,-4.7943,-4.7952,-4.796,-4.8019,-4.8019,-4.7909,-4.7798,-4.7873,-4.7815,-4.7694,-4.7836,-4.7734,-4.7746,-4.7871,-4.8016,-4.8037,-4.8057,-4.8294,-4.8345,-4.8387,0,0,0,0,0,0,-4.7854,-4.7865,-4.7938,-4.787,-4.787,-4.8011,-4.7798,-4.7773,-4.7787,-4.7762,-4.7709,-4.7692,-4.7602,-4.772,-4.7733,-4.7854,-4.7597,-4.8025,-4.8042,-4.8059,-4.8311,-4.8353,-4.8388,0,0,0,0,0,-4.7855,-4.7864,-4.7905,-4.7867,-4.7867,-4.7761,-4.7791,-4.7768,-4.7777,-4.7686,-4.7665,-4.7693,-4.7608,-4.7611,-4.7727,-4.7851,-4.7587,-4.7592,-4.8036,-4.805,-4.8063,-4.8332,0,0,0,0,0,0,-4.7856,-4.7844,-4.7902,-4.7898,-4.7794,-4.7751,-4.774,-4.7765,-4.7697,-4.7679,-4.7662,-4.7644,-4.7615,-4.7616,-4.7619,-4.7856,-4.7579,-4.7585,-4.7588,-4.8047,-4.8058,-4.8068,0,0,0,0,0,0,-4.7839,-4.7843,-4.79,-4.7814,-4.78,-4.7743,-4.7733,-4.7814,-4.7699,-4.7677,-4.7659,-4.7655,-4.7611,-4.762,-4.7622,-4.7754,-4.7573,-4.7578,-4.7582,-4.7584,-4.8056,-4.8065,0,0,0,0,0,0,-4.7839,-4.7841,-4.7814,-4.7804,-4.779,-4.774,-4.7813,-4.7828,-4.7623,-4.7683,-4.7602,-4.7592,-4.7619,-4.7618,-4.7625,-4.7757,-4.7755,-4.7574,-4.7577,-4.7579,-4.7581,0,0,0,0,0,0,0,-4.7838,-4.7844,-4.7924,-4.7795,-4.7782,-4.7864,-4.7863,-4.7862,-4.7621,-4.7613,-4.7604,-4.7597,-4.7545,-4.755,-4.7556,-4.776,0,0,-4.7573,-4.7576,0,0,0,0,0,0,0,0,-4.784,-4.7843,-4.7924,-4.7923,-4.7923,-4.7864,-4.7863,-4.7862,-4.762,-4.7613,-4.7606,-4.76,-4.7546,-4.7551,-4.7555,0,0,0,0,0,0,0,0,0,0,0,0,0,0,0,-4.7924,-4.7923,0,-4.7864,-4.7863,-4.7862,-4.7619,-4.7613,-4.7608,-4.7602,-4.7547,-4.7551,-4.7555,0,0,0,0,0,0,0,0,0,0,0,0,0,0,0,0,0,0,0,0,0,0,0,0,0,0,0,0,0,0,0,0,0,0,0,0,0,0,0,0,0,0,0,0,0,0,0,0,0,0,0,0,0,0,0,0,0,0,0,0,0,0,0,0,0,0,0,0,0]}],[{"header":{"parameterUnit":"kt","parameterCategory":2,"dx":1,"dy":1,"la1":30.253999710083008,"la2":30.299108505249023,"lo1":-89.0895004272461,"lo2":-89.04439544677734,"nx":28,"ny":28,"refTime":"2022-10-14T21:00:00:Z","depth":0,"parameterNumber":2,"parameterNumberName":"V-component_of_WINDS"},"data":[3.3492,3.3472,3.3492,3.3478,3.3494,3.3487,3.349,3.3497,3.3507,3.3501,3.35,3.3517,3.3534,3.3536,3.3536,3.3543,3.3539,3.3519,3.353,3.3608,3.362,3.3631,3.3636,3.3519,3.3519,3.3445,3.3444,3.3444,3.3548,3.3563,3.3562,3.3574,3.3573,3.3605,3.3617,3.3613,3.3605,3.3618,3.3619,3.3614,3.3612,3.3636,3.3637,3.3627,3.364,3.3625,3.3624,3.3625,3.3711,3.3716,3.3614,3.3614,3.3614,3.3614,3.3614,3.3614,3.3654,3.3642,3.3661,3.3659,3.3671,3.3678,3.3669,3.3691,3.3689,3.3694,3.3717,3.3709,3.3723,3.3734,3.3742,3.3735,3.3754,3.3742,3.3739,3.3734,3.3726,3.3825,3.3736,3.3736,3.3737,3.3737,3.3737,0,3.3737,3.3754,3.3755,3.376,3.3761,3.3767,3.3775,3.3771,3.3812,3.3809,3.3805,3.3806,3.3807,3.3804,3.381,3.382,3.3849,3.3855,3.3847,3.3833,3.382,3.3823,3.3958,3.3857,3.3858,3.3858,3.3859,3.3859,3.3842,3.3826,3.3856,3.3853,3.3863,3.3858,3.3859,3.3897,3.3896,3.3911,3.3898,3.3897,3.3897,3.3887,3.3909,3.391,3.3923,3.3882,3.3923,3.3911,3.3918,3.3917,3.3914,3.3871,3.387,3.3868,3.3867,0,3.3899,3.3931,3.3913,3.3943,3.395,3.393,3.3955,3.3944,3.3966,3.3953,3.3953,3.3985,3.398,3.401,3.401,3.4025,3.399,3.4006,3.3985,3.3989,3.3952,3.3954,3.3836,3.3821,3.3947,3.3946,3.3945,0,3.4,3.3977,3.4026,3.4013,3.3989,3.4028,3.4003,3.4019,3.4033,3.4023,3.4064,3.4053,3.4094,3.4087,3.411,3.4087,3.4088,3.4097,3.4102,3.4091,3.4089,3.4087,3.409,3.412,3.4121,3.4121,3.4122,0,3.4082,3.4083,3.4063,3.4068,3.4096,3.4086,3.4097,3.4114,3.4113,3.4118,3.4118,3.4121,3.4122,3.4123,3.4151,3.4177,3.4125,3.4167,3.4134,3.4133,3.4117,3.4117,3.4009,3.4122,3.4122,3.4123,3.4123,0,3.4166,3.4172,3.414,3.4164,3.4162,3.415,3.4155,3.4151,3.4165,3.4179,3.4183,3.4211,3.4197,3.4236,3.4215,3.4241,3.4239,3.4247,3.4245,3.4241,3.4283,3.4213,3.4111,3.41,3.4244,3.4245,3.4246,0,3.425,3.4226,3.4259,3.4227,3.422,3.4265,3.4252,3.4263,3.428,3.4275,3.4295,3.4288,3.4324,3.4326,3.4312,3.433,3.4297,3.4336,3.4324,3.4323,3.4316,3.4223,3.4198,3.4132,3.4259,3.4258,3.4257,0,3.4318,3.4354,3.4346,3.4353,3.4375,3.4369,3.4354,3.4357,3.4352,3.4361,3.4347,3.4341,3.4366,3.4369,3.4392,3.4376,3.432,3.4405,3.4406,3.4386,3.4269,3.4246,3.4234,3.4339,3.4338,3.4337,3.4267,0,3.4433,3.4426,3.4407,3.442,3.4421,3.4403,3.4435,3.4431,3.4454,3.4472,3.4454,3.447,3.4471,3.4467,3.4489,3.4444,3.4455,3.4482,3.4519,3.4459,3.4437,3.4428,3.455,3.4551,3.4552,3.4553,0,0,3.4503,3.4493,3.4529,3.4516,3.4518,3.4564,3.4542,3.4549,3.4563,3.4562,3.4584,3.4576,3.4587,3.4561,3.4545,3.4547,3.454,3.456,3.4488,3.4481,3.4474,3.445,3.444,3.4555,3.4555,3.4556,3.4556,0,3.4551,3.4565,3.4544,3.4554,3.4569,3.459,3.4585,3.4607,3.4618,3.4601,3.4637,3.4629,3.4622,3.4628,3.463,3.4565,3.459,3.4564,3.4517,3.4498,3.4489,3.4482,3.4456,3.4446,3.4559,3.4559,3.4559,0,3.4621,3.4639,3.4633,3.4642,3.4652,3.4643,3.4691,3.468,3.4673,3.4721,3.4703,3.4716,3.4727,3.47,3.4688,3.4707,3.4634,3.4663,3.4657,3.4655,3.4638,3.4628,3.4618,3.4741,3.4742,3.4742,0,0,3.4657,3.4651,3.4681,3.4654,3.4658,3.4688,3.4687,3.4709,3.472,3.4723,3.4739,3.4748,3.4744,3.474,3.4738,3.4703,3.4707,3.4684,3.4676,3.4669,3.4663,3.4644,3.4633,3.4744,3.4744,3.4744,0,0,3.4674,3.4708,3.4729,3.4702,3.4712,3.4738,3.472,3.4746,3.4747,3.4752,3.4787,3.4791,3.4766,3.4776,3.4799,3.475,3.4787,3.4782,3.4744,3.4734,3.4725,3.4721,3.4847,0,0,0,0,0,3.4738,3.4704,3.4723,3.4723,3.4734,3.4728,3.4729,3.4759,3.4784,3.4769,3.4786,3.4814,3.4796,3.4816,3.4815,3.4788,3.4769,3.4765,3.4761,3.4704,3.4692,3.4683,0,0,0,0,0,0,3.4739,3.4739,3.4724,3.4748,3.4751,3.473,3.4778,3.4785,3.4786,3.4792,3.481,3.4815,3.4839,3.4819,3.4817,3.4791,3.4847,3.4767,3.4764,3.476,3.47,3.4691,3.4683,0,0,0,0,0,3.4739,3.4739,3.4748,3.4749,3.4751,3.4782,3.478,3.4786,3.4787,3.4814,3.4819,3.4809,3.4837,3.4838,3.4818,3.4791,3.4849,3.4848,3.4765,3.4762,3.4759,3.4695,0,0,0,0,0,0,3.4739,3.4744,3.4749,3.4751,3.4764,3.4784,3.4788,3.4787,3.4809,3.4815,3.4814,3.4818,3.4836,3.4837,3.4837,3.479,3.485,3.4849,3.4849,3.4763,3.476,3.4758,0,0,0,0,0,0,3.4744,3.4745,3.475,3.4768,3.4772,3.4785,3.4789,3.4776,3.4809,3.4809,3.4813,3.4816,3.4835,3.4835,3.4836,3.4815,3.485,3.485,3.4849,3.4849,3.4761,3.4759,0,0,0,0,0,0,3.4745,3.4746,3.4767,3.477,3.4774,3.4795,3.4774,3.4783,3.4826,3.4807,3.483,3.4832,3.4833,3.4834,3.4835,3.4813,3.4814,3.485,3.485,3.485,3.4849,0,0,0,0,0,0,0,3.4746,3.4733,3.4739,3.4773,3.4776,3.4767,3.4768,3.4768,3.4826,3.4828,3.483,3.4831,3.4854,3.4853,3.4853,3.4812,0,0,3.485,3.485,0,0,0,0,0,0,0,0,3.4734,3.4734,3.4739,3.474,3.474,3.4767,3.4768,3.4768,3.4826,3.4828,3.4829,3.4831,3.4854,3.4853,3.4853,0,0,0,0,0,0,0,0,0,0,0,0,0,0,0,3.4739,3.474,0,3.4767,3.4768,3.4768,3.4827,3.4828,3.4829,3.483,3.4854,3.4853,3.4853,0,0,0,0,0,0,0,0,0,0,0,0,0,0,0,0,0,0,0,0,0,0,0,0,0,0,0,0,0,0,0,0,0,0,0,0,0,0,0,0,0,0,0,0,0,0,0,0,0,0,0,0,0,0,0,0,0,0,0,0,0,0,0,0,0,0,0,0,0]}]]]